Content
SEND FEEDBACK

Daily
Averages
Monthly
Summary
United States of America

WATSONVILLE, CALIFORNIA


Home > North America > United States > California
Elevation: 10 feet     Latitude: 36 56N     Longitude: 121 46W

WEATHER
 
SELECT A DAY
Number of Records: 25,206;   Date Range: 9/2/12 - 12/26/14
 
SHARE

PRINT THIS DATA

[ ← Previous Day ]
WEATHER ALMANAC - FEBRUARY 13, 2013
[ Next Day → ]
[ °C ]   °F
Weather ElementAverageHighLow
Temperature45.6 °F59 °F (12:53 pm)36 °F (6:53 am)
Dewpoint40.1 °F46 °F (5:53 pm)33.1 °F (6:53 am)
Humidity82.4 %100 % (10:32 pm)55 % (3:53 pm)
Barometer30.28 in30.35 in (7:53 am)30.24 in (3:53 pm)
Wind Speed2.4 mph6.9 mph (1:53 pm)
Weather ElementAverage
Visibility7.7 mi
Wind DirectionSE (137.4 °)

Weather ElementTotal
Precipitation---
Heating Degree Days17.5 (Base 65)
Averaged from 31 records on February 13, 2013
WEATHER CONDITIONS BREAKOUT
WIND DIRECTION BREAKOUT
WEATHER BY HOUR - FEBRUARY 13, 2013
[ °C ]   °F
Local TimeTemperatureDewpointHumidityBarometerVisibilityWind DirectionWind SpeedGust SpeedPrecipitationEventsConditions
1:53 AM41.0 °F36.0 °F82 %30.34 in10.0 miNW (310°)4.6 mphOvercast
2:10 AM39.2 °F35.6 °F87 %30.34 in10.0 miNW (310°)4.6 mphScattered Clouds
2:53 AM39.0 °F34.0 °F82 %30.34 in10.0 miNNW (330°)3.5 mphClear
3:53 AM39.0 °F35.1 °F86 %30.33 in10.0 miCalmClear
4:53 AM37.0 °F35.1 °F93 %30.33 in10.0 miWNW (290°)3.5 mphClear
5:53 AM37.0 °F34.0 °F89 %30.33 in10.0 miCalmClear
6:53 AM36.0 °F33.1 °F89 %30.33 in10.0 miCalmClear
7:53 AM39.9 °F36.0 °F86 %30.35 in10.0 miCalmClear
8:53 AM44.1 °F37.9 °F79 %30.35 in10.0 miCalmClear
9:53 AM48.9 °F39.9 °F71 %30.35 in10.0 miCalmClear
10:53 AM54.0 °F42.1 °F64 %30.34 in10.0 miESE (120°)3.5 mphClear
11:53 AM55.9 °F44.1 °F64 %30.32 in10.0 miCalmClear
12:53 PM59.0 °F45.0 °F60 %30.29 in10.0 miSSW (210°)4.6 mphClear
1:53 PM59.0 °F44.1 °F58 %30.26 in10.0 miSW (220°)6.9 mphClear
2:53 PM59.0 °F44.1 °F58 %30.25 in10.0 miWSW (250°)4.6 mphClear
3:53 PM59.0 °F43.0 °F55 %30.24 in10.0 miSouth (180°)5.8 mphClear
4:53 PM55.9 °F44.1 °F64 %30.24 in10.0 miSSE (160°)3.5 mphClear
5:53 PM51.1 °F46.0 °F83 %30.24 in10.0 miSE (130°)3.5 mphClear
6:53 PM46.9 °F45.0 °F93 %30.24 in9.0 miSSE (150°)3.5 mphClear
7:53 PM48.0 °F45.0 °F89 %30.25 in6.0 miCalmClear
8:53 PM45.0 °F43.0 °F93 %30.25 in6.0 miCalmClear
9:53 PM43.0 °F39.9 °F89 %30.25 in10.0 miCalmClear
10:26 PM42.8 °F39.2 °F87 %30.25 in2.0 miCalmPartly Cloudy
10:28 PM42.8 °F41.0 °F93 %30.25 in1.0 miCalmMist
10:32 PM42.8 °F42.8 °F100 %30.25 in0.2 miCalmFogFog
10:53 PM42.1 °F41.0 °F96 %30.25 in0.2 miCalmFogFog
11:23 PM42.8 °F39.2 °F87 %30.24 in0.5 miNW (320°)4.6 mphFogFog
11:28 PM41.0 °F39.2 °F93 %30.24 in1.5 miNW (310°)3.5 mphMostly Cloudy
11:31 PM41.0 °F39.2 °F93 %30.24 in2.5 miNW (320°)4.6 mphScattered Clouds
11:38 PM41.0 °F39.2 °F93 %30.24 in9.0 miNNW (330°)4.6 mphPartly Cloudy
11:53 PM39.9 °F39.0 °F97 %30.25 in10.0 miNW (320°)4.6 mphClear
Hourly data recorded from KWVI, located miles away from Watsonville, California







STORIES FROM OUR PARTNERS